Location: *
(46.3500°N, 10.9000°E)
Time: 07:24:55
(UTC+00:00)

Courier 1B Rocket - All Passes

Search period start: 20 April 2021 00:00
Search period end: 30 April 2021 00:00
Orbit: 920 x 1202 km, 28.2° (Epoch: 19 April)

Date Brightness Start Highest point End Pass type
(mag) Time Alt. Az. Time Alt. Az. Time Alt. Az.
20 Apr - 18:59:40 10° SSW 19:02:58 14° SSE 19:06:22 10° SE visible
20 Apr - 20:50:48 10° SW 20:55:14 18° S 20:59:50 10° SE visible
20 Apr - 22:44:25 10° SW 22:47:34 13° SSW 22:50:46 10° S night (unlit)
21 Apr - 18:00:37 10° S 18:02:18 11° SSE 18:04:01 10° SSE daylight
21 Apr - 19:50:17 10° SSW 19:54:28 17° S 19:58:48 10° SE visible
21 Apr - 21:43:00 10° SW 21:46:47 15° S 21:50:41 10° SSE visible
22 Apr - 18:50:04 10° SSW 18:53:45 15° S 18:57:33 10° SE visible
22 Apr - 20:42:00 10° SW 20:46:01 16° S 20:50:11 10° SSE visible
23 Apr - 17:50:15 10° SSW 17:53:04 13° SSE 17:55:58 10° SE daylight
23 Apr - 19:41:17 10° SW 19:45:17 16° S 19:49:25 10° SE visible
23 Apr - 21:35:03 10° SW 21:37:33 12° SSW 21:40:05 10° S visible
24 Apr - 16:51:42 10° SSE 16:52:28 10° SSE 16:53:14 10° SSE daylight
24 Apr - 18:40:49 10° SSW 18:44:34 16° S 18:48:26 10° SE visible
24 Apr - 20:33:34 10° SW 20:36:49 14° S 20:40:09 10° SSE visible
25 Apr - 17:40:37 10° SSW 17:43:53 14° S 17:47:15 10° SE daylight
25 Apr - 19:32:34 10° SW 19:36:06 15° S 19:39:45 10° SSE visible
26 Apr - 16:40:50 10° S 16:43:16 12° SSE 16:45:43 10° SE daylight
26 Apr - 18:31:50 10° SW 18:35:25 15° S 18:39:05 10° SSE daylight
26 Apr - 20:26:03 10° SSW 20:27:37 11° SSW 20:29:10 10° S visible
27 Apr - 17:31:22 10° SSW 17:34:45 15° S 17:38:12 10° SE daylight
27 Apr - 19:24:17 10° SW 19:26:55 13° SSW 19:29:38 10° SSE visible
28 Apr - 16:31:08 10° SSW 16:34:06 14° S 16:37:07 10° SE daylight
28 Apr - 18:23:11 10° SW 18:26:16 14° S 18:29:25 10° SSE daylight
29 Apr - 15:31:18 10° S 15:33:30 12° SSE 15:35:42 10° SSE daylight
29 Apr - 17:22:24 10° SSW 17:25:37 14° S 17:28:53 10° SSE daylight
